Lava Hot Springs, Idaho, United States (83246)
Lat: 42.62N, Lon: 112.01W
Wx Zone: IDZ023
Local Info
Past Weather Observations for Today

NOTE: This archive is for the closest National Weather Service station to Lava Hot Springs. Information may differ from the station used for current weather conditions.

Click here for Long-term Archive

Time Weather Temperature Dewpoint Humidity Pressure Winds Precip Visibility
19:53
Clear
75°F / 24°C 48°F / 9°C 39% 30.21 in
(1023 mb)
SE 11.5 mph
(SE 19 kph)
- 10SM
18:53
Partly Cloudy
81°F / 27°C 48°F / 9°C 32% 30.21 in
(1023 mb)
SE 10.4 mph
(SE 17 kph)
- 10SM
17:53
Clear
82°F / 28°C 48°F / 9°C 30% 30.18 in
(1022 mb)
E 9.2 mph
(E 15 kph)
- 10SM
16:53
Partly Cloudy
84°F / 29°C 46°F / 8°C 27% 30.18 in
(1022 mb)
ESE 9.2 mph
(ESE 15 kph)
- 10SM
15:53
Partly Cloudy
86°F / 30°C 46°F / 8°C 25% 30.18 in
(1022 mb)
NE 11.5 mph
(NE 19 kph)
- 10SM
14:53
Partly Cloudy
84°F / 29°C 48°F / 9°C 29% 30.21 in
(1023 mb)
E 13.8 mph
(E 22 kph)
- 10SM
13:53
Partly Cloudy
84°F / 29°C 52°F / 11°C 33% 30.21 in
(1023 mb)
Variable 5.8 mph
(Variable 9 kph)
- 10SM
12:53
Partly Cloudy
81°F / 27°C 50°F / 10°C 34% 30.21 in
(1023 mb)
Variable 3.5 mph
(Variable 6 kph)
- 10SM
11:53
Clear
82°F / 28°C 54°F / 12°C 37% 30.24 in
(1024 mb)
NE 9.2 mph
(NE 15 kph)
- 10SM
10:53
Partly Cloudy
79°F / 26°C 52°F / 11°C 39% 30.24 in
(1024 mb)
NE 5.8 mph
(NE 9 kph)
- 10SM
09:53
Partly Cloudy
73°F / 23°C 55°F / 13°C 53% 30.24 in
(1024 mb)
Calm - 10SM
08:53
Partly Cloudy
70°F / 21°C 57°F / 14°C 64% 30.27 in
(1025 mb)
SW 5.8 mph
(SW 9 kph)
- 10SM
07:53
Partly Cloudy
64°F / 18°C 57°F / 14°C 78% 30.27 in
(1025 mb)
SW 5.8 mph
(SW 9 kph)
- 10SM
06:53
Partly Cloudy
57°F / 14°C 55°F / 13°C 94% 30.24 in
(1024 mb)
SSW 3.5 mph
(SSW 6 kph)
- 10SM
05:53
Partly Cloudy
55°F / 13°C 54°F / 12°C 94% 30.24 in
(1024 mb)
SSW 5.8 mph
(SSW 9 kph)
- 10SM
04:53
Clear
54°F / 12°C 52°F / 11°C 94% 30.21 in
(1023 mb)
SSE 5.8 mph
(SSE 9 kph)
- 10SM
03:53
Clear
55°F / 13°C 54°F / 12°C 94% 30.21 in
(1023 mb)
NW 6.9 mph
(NW 11 kph)
- 10SM
02:53
Clear
59°F / 15°C 55°F / 13°C 88% 30.21 in
(1023 mb)
SSE 4.6 mph
(SSE 7 kph)
- 10SM
01:53
Clear
57°F / 14°C 55°F / 13°C 94% 30.21 in
(1023 mb)
S 5.8 mph
(S 9 kph)
- 10SM
00:53
Clear
59°F / 15°C 55°F / 13°C 88% 30.21 in
(1023 mb)
W 3.5 mph
(W 6 kph)
- 10SM
Time Weather Temperature Dewpoint Humidity Pressure Winds Precip Visibility


Weather for websites

WeatherForYou.com, LLC is not responsible for any damages or problems caused by this service. Current weather conditions are obtained from the closest station including government and personal stations which may have varying degrees of accuracy. Weather forecasts are derived from the NOAA NDFD. Like all things, this site belongs to Jesus Christ... He just trusts me to maintain it. If you have any questions or comments email webmaster@weatherforyou.com

Copyright © 2014, WeatherForYou.com LLC. All rights reserved.